Total_Precipitation_Accumulation
0.01 0.00 0.01 0.01 0.01 0.01 0.00 0.01 0.02 0.05 0.07 0.09 0.11 0.13 0.13 0.11 0.09 0.09 0.08 0.08 0.08 0.10 0.14 0.18 0.21 0.24 0.27 0.27 0.19 0.11 0.08 0.07 0.06 0.04 0.02 0.03 0.04 0.05 0.07 0.06 0.04 0.04 0.01
0.01 0.00 0.01 0.01 0.02 0.01 0.00 0.01 0.02 0.04 0.06 0.07 0.07 0.08 0.09 0.08 0.07 0.08 0.09 0.10 0.11 0.13 0.13 0.15 0.19 0.23 0.23 0.20 0.15 0.09 0.06 0.04 0.04 0.05 0.07 0.12 0.17 0.15 0.15 0.12 0.07 0.07 0.02
0.01 0.00 0.01 0.01 0.02 0.02 0.02 0.02 0.02 0.04 0.07 0.08 0.07 0.06 0.05 0.04 0.04 0.05 0.07 0.10 0.15 0.17 0.15 0.15 0.15 0.17 0.17 0.13 0.08 0.05 0.02 0.02 0.03 0.07 0.16 0.28 0.38 0.30 0.27 0.23 0.22 0.13 0.04
0.01 0.00 0.00 0.01 0.02 0.04 0.03 0.04 0.03 0.05 0.08 0.12 0.13 0.11 0.07 0.04 0.04 0.06 0.08 0.10 0.14 0.15 0.13 0.11 0.10 0.10 0.08 0.05 0.04 0.02 0.01 0.01 0.03 0.07 0.16 0.26 0.36 0.34 0.28 0.27 0.33 0.31 0.21
0.02 0.01 0.00 0.01 0.02 0.05 0.06 0.06 0.06 0.07 0.11 0.15 0.17 0.17 0.12 0.06 0.04 0.07 0.10 0.11 0.12 0.15 0.17 0.14 0.10 0.06 0.04 0.03 0.03 0.01 0.01 0.01 0.04 0.14 0.29 0.44 0.48 0.46 0.34 0.29 0.32 0.37 0.37
0.01 0.00 0.00 0.01 0.02 0.05 0.08 0.09 0.09 0.10 0.13 0.17 0.21 0.20 0.13 0.06 0.05 0.08 0.12 0.15 0.17 0.20 0.25 0.22 0.20 0.13 0.08 0.05 0.03 0.02 0.02 0.04 0.09 0.27 0.39 0.50 0.51 0.46 0.33 0.26 0.26 0.35 0.37
0.02 0.01 0.00 0.02 0.03 0.06 0.08 0.07 0.08 0.11 0.13 0.18 0.21 0.17 0.11 0.06 0.04 0.07 0.14 0.17 0.21 0.24 0.24 0.21 0.19 0.14 0.12 0.10 0.08 0.09 0.10 0.13 0.18 0.31 0.35 0.37 0.37 0.31 0.24 0.21 0.18 0.18 0.22
0.02 0.01 0.00 0.01 0.03 0.10 0.15 0.10 0.07 0.08 0.10 0.15 0.19 0.16 0.10 0.08 0.09 0.13 0.15 0.18 0.21 0.19 0.16 0.17 0.16 0.13 0.15 0.17 0.17 0.18 0.19 0.20 0.19 0.22 0.22 0.22 0.21 0.15 0.18 0.20 0.14 0.10 0.09
0.08 0.05 0.02 0.02 0.02 0.05 0.06 0.05 0.04 0.04 0.07 0.12 0.17 0.20 0.16 0.13 0.20 0.24 0.21 0.22 0.25 0.21 0.16 0.17 0.18 0.15 0.19 0.23 0.19 0.16 0.14 0.12 0.09 0.07 0.07 0.08 0.08 0.06 0.08 0.09 0.08 0.06 0.05
0.30 0.38 0.16 0.09 0.04 0.02 0.02 0.01 0.01 0.01 0.02 0.05 0.08 0.12 0.13 0.15 0.19 0.21 0.18 0.16 0.19 0.14 0.11 0.10 0.12 0.12 0.10 0.08 0.05 0.03 0.03 0.02 0.01 0.01 0.01 0.02 0.03 0.03 0.04 0.03 0.03 0.04 0.04
0.54 0.71 0.49 0.18 0.04 0.01 0.02 0.01 0.00 0.00 0.00 0.01 0.02 0.04 0.09 0.18 0.21 0.19 0.12 0.09 0.07 0.04 0.02 0.02 0.02 0.01 0.01 0.01 0.00 0.00 0.00 0.00 0.00 0.00 0.01 0.02 0.02 0.02 0.02 0.01 0.01 0.01 0.02
0.64 0.60 0.47 0.11 0.03 0.01 0.01 0.01 0.02 0.01 0.01 0.03 0.05 0.04 0.11 0.18 0.20 0.13 0.06 0.03 0.01 0.00 0.00 0.00 0.00 0.00 0.00 0.00 0.00 0.00 0.00 0.00 0.00 0.00 0.00 0.00 0.01 0.01 0.01 0.01 0.01 0.01 0.01
0.57 0.32 0.16 0.10 0.06 0.03 0.01 0.01 0.02 0.02 0.02 0.02 0.04 0.04 0.09 0.08 0.05 0.02 0.01 0.01 0.00 0.00 0.00 0.00 0.00 0.00 0.00 0.00 0.00 0.00 0.00 0.00 0.00 0.00 0.00 0.00 0.01 0.01 0.01 0.01 0.01 0.01 0.01
0.32 0.23 0.13 0.10 0.07 0.05 0.02 0.01 0.02 0.02 0.02 0.02 0.02 0.02 0.04 0.06 0.05 0.04 0.03 0.02 0.02 0.01 0.01 0.01 0.00 0.00 0.00 0.00 0.00 0.00 0.00 0.00 0.00 0.00 0.00 0.00 0.00 0.01 0.01 0.01 0.01 0.01 0.01
0.31 0.29 0.16 0.11 0.07 0.04 0.02 0.01 0.01 0.01 0.01 0.01 0.01 0.01 0.01 0.03 0.04 0.05 0.05 0.03 0.02 0.03 0.03 0.02 0.02 0.01 0.00 0.00 0.00 0.00 0.00 0.00 0.00 0.00 0.00 0.00 0.00 0.01 0.02 0.02 0.02 0.02 0.02
0.49 0.46 0.23 0.11 0.04 0.03 0.02 0.01 0.01 0.01 0.03 0.03 0.04 0.03 0.02 0.04 0.06 0.06 0.06 0.05 0.03 0.02 0.03 0.03 0.03 0.02 0.01 0.01 0.01 0.01 0.01 0.01 0.01 0.00 0.00 0.01 0.01 0.01 0.02 0.03 0.05 0.05 0.04
0.69 0.64 0.30 0.10 0.03 0.02 0.02 0.02 0.02 0.03 0.05 0.05 0.06 0.05 0.04 0.04 0.06 0.05 0.06 0.05 0.04 0.03 0.03 0.04 0.03 0.03 0.03 0.03 0.02 0.02 0.02 0.02 0.02 0.02 0.02 0.02 0.03 0.03 0.04 0.05 0.06 0.06 0.06
1.01 1.00 0.42 0.10 0.04 0.04 0.05 0.06 0.06 0.07 0.06 0.06 0.07 0.06 0.05 0.05 0.06 0.06 0.06 0.06 0.06 0.06 0.07 0.08 0.09 0.07 0.08 0.07 0.05 0.05 0.05 0.05 0.05 0.05 0.05 0.06 0.06 0.07 0.07 0.07 0.07 0.07 0.07
1.49 1.28 0.51 0.17 0.10 0.10 0.11 0.13 0.17 0.18 0.16 0.14 0.13 0.13 0.12 0.10 0.09 0.10 0.12 0.14 0.15 0.15 0.15 0.16 0.18 0.17 0.16 0.13 0.11 0.10 0.08 0.06 0.07 0.07 0.07 0.07 0.07 0.07 0.07 0.07 0.07 0.07 0.07
1.92 1.44 0.69 0.44 0.35 0.25 0.20 0.21 0.24 0.26 0.25 0.25 0.22 0.20 0.19 0.19 0.21 0.23 0.26 0.28 0.26 0.24 0.24 0.25 0.24 0.19 0.15 0.11 0.08 0.06 0.06 0.06 0.06 0.05 0.05 0.04 0.04 0.04 0.03 0.03 0.03 0.04 0.06
0.93 0.84 0.70 0.62 0.55 0.46 0.44 0.45 0.51 0.50 0.43 0.37 0.37 0.36 0.39 0.42 0.47 0.47 0.40 0.37 0.31 0.28 0.25 0.21 0.16 0.12 0.09 0.06 0.05 0.04 0.03 0.02 0.02 0.02 0.01 0.01 0.01 0.01 0.01 0.01 0.01 0.01 0.02
0.55 0.68 0.70 0.62 0.57 0.60 0.69 0.74 0.78 0.76 0.70 0.64 0.62 0.67 0.69 0.67 0.62 0.53 0.44 0.34 0.28 0.23 0.17 0.14 0.11 0.08 0.05 0.03 0.03 0.02 0.01 0.01 0.00 0.00 0.00 0.00 0.00 0.00 0.00 0.00 0.00 0.00 0.00
0.46 0.65 0.71 0.67 0.71 0.82 0.90 0.99 1.03 0.98 0.86 0.84 0.83 0.86 0.81 0.75 0.67 0.57 0.45 0.32 0.22 0.17 0.13 0.10 0.07 0.04 0.02 0.01 0.01 0.02 0.02 0.01 0.00 0.00 0.00 0.00 0.00 0.00 0.00 0.00 0.00 0.00 0.00
0.52 0.66 0.71 0.74 0.85 1.00 1.07 1.10 1.12 1.09 1.02 1.00 0.87 0.83 0.75 0.63 0.55 0.45 0.32 0.23 0.17 0.11 0.08 0.04 0.03 0.02 0.02 0.01 0.00 0.01 0.01 0.01 0.02 0.01 0.00 0.00 0.00 0.00 0.00 0.00 0.00 0.00 0.00
0.54 0.66 0.71 0.79 0.95 1.08 1.13 1.16 1.22 1.19 1.08 0.93 0.76 0.65 0.53 0.41 0.32 0.25 0.17 0.12 0.08 0.05 0.03 0.02 0.01 0.01 0.01 0.01 0.01 0.01 0.01 0.01 0.02 0.04 0.02 0.01 0.00 0.00 0.00 0.00 0.00 0.00 0.00
0.40 0.53 0.60 0.70 0.89 1.03 1.10 1.11 1.06 0.99 0.82 0.64 0.54 0.46 0.36 0.26 0.19 0.14 0.10 0.06 0.04 0.02 0.01 0.01 0.01 0.01 0.02 0.02 0.02 0.02 0.03 0.03 0.03 0.04 0.05 0.03 0.01 0.00 0.00 0.00 0.00 0.00 0.01